This is the latest recevied weather packets stored in our database for station/object MB7UUE. If no packets are shown the sender has not sent any weather packets the latest 10 day(s).
| Time | Temp. | Humidity | Pressure | Rain* | Wind** | Luminosity | Snow |
|---|---|---|---|---|---|---|---|
| 1777739708 | 19.44° C | 55% | 1012.2 hPa | 0 mm | - | - | - |
| 1777738967 | 20° C | 54% | 1012.2 hPa | 0 mm | - | - | - |
| 1777738569 | 20.56° C | 54% | 1012.2 hPa | 0 mm | - | - | - |
| 1777737828 | 20.56° C | 52% | 1012.5 hPa | 0 mm | - | - | - |
| 1777737430 | 20.56° C | 52% | 1012.6 hPa | 0 mm | - | - | - |
| 1777736688 | 21.11° C | 51% | 1012.7 hPa | 0 mm | - | - | - |
| 1777736289 | 21.11° C | 51% | 1012.8 hPa | 0 mm | - | - | - |
| 1777735548 | 21.67° C | 48% | 1013.1 hPa | 0 mm | - | - | - |
| 1777735149 | 21.67° C | 48% | 1013.1 hPa | 0 mm | - | - | - |
| 1777734408 | 22.22° C | 48% | 1013.3 hPa | 0 mm | - | - | - |
| 1777734009 | 22.22° C | 48% | 1013.3 hPa | 0 mm | - | - | - |
| 1777733268 | 22.22° C | 44% | 1013.4 hPa | 0 mm | - | - | - |
| 1777732869 | 22.22° C | 44% | 1013.4 hPa | 0 mm | - | - | - |
| 1777732128 | 22.22° C | 43% | 1013.7 hPa | 0 mm | - | - | - |
| 1777731729 | 22.22° C | 43% | 1013.7 hPa | 0 mm | - | - | - |
| 1777730988 | 22.22° C | 44% | 1013.9 hPa | 0 mm | - | - | - |
| 1777730590 | 22.22° C | 44% | 1013.9 hPa | 0 mm | - | - | - |
| 1777729848 | 22.22° C | 43% | 1014.3 hPa | 0 mm | - | - | - |
| 1777729450 | 22.22° C | 43% | 1014.4 hPa | 0 mm | - | - | - |
| 1777728708 | 21.67° C | 43% | 1014.4 hPa | 0 mm | - | - | - |
| 1777728310 | 21.67° C | 43% | 1014.7 hPa | 0 mm | - | - | - |
| 1777727569 | 21.67° C | 43% | 1014.9 hPa | 0 mm | - | - | - |
| 1777727170 | 21.11° C | 43% | 1014.9 hPa | 0 mm | - | - | - |
| 1777726428 | 21.11° C | 45% | 1014.9 hPa | 0 mm | - | - | - |
| 1777726264 | 20.56° C | 45% | 1014.9 hPa | 0 mm | - | - | - |
* Rain latest hour (hover to see other rain measurements)
** Current wind speed in m/s (hover to see current wind gust speed)